Regional Weather Roundup
Issued by NWS Little Rock, AR

Home | Current Version | Previous Version | Text Only | Print | Product List | Glossary On
Versions: 1 2 3 4 5 6 7 8 9 10 11 12 13 14 15 16 17 18 19 20 21 22 23 24 25 26 27 28 29 30 31 32 33 34 35 36 37 38 39 40 41 42 43 44 45 46 47 48 49 50
000
ASUS44 KLZK 020005
RWRLZK

WEATHER ROUNDUP FOR ARKANSAS
NATIONAL WEATHER SERVICE LITTLE ROCK AR
700 PM CDT FRI AUG 01 2014

NOTE: "FAIR" INDICATES FEW OR NO CLOUDS BELOW 12,000 FEET WITH NO
SIGNIFICANT WEATHER AND/OR OBSTRUCTIONS TO VISIBILITY.

ARZ001-003-010-029-020100-
NORTHWEST ARKANSAS

CITY           SKY/WX    TMP DP  RH WIND       PRES   REMARKS
FAYETTEVILLE   SUNNY     78  63  59 SE3       30.05F
6HR MIN TEMP:  74; 6HR MAX TEMP:  81;

FORT SMITH     SUNNY     80  67  64 S3        30.02F
6HR MIN TEMP:  77; 6HR MAX TEMP:  82;

HARRISON       MOSUNNY   78  64  61 E5        30.06F
6HR MIN TEMP:  74; 6HR MAX TEMP:  80;

BENTONVILLE    MOSUNNY   81  61  50 NE3       30.07S
6HR MIN TEMP:  75; 6HR MAX TEMP:  82;

ROGERS         SUNNY     80  61  52 E3        30.06F
6HR MIN TEMP:  76; 6HR MAX TEMP:  82;

SILOAM SPGS    SUNNY     81  57  44 CALM      30.06S
6HR MIN TEMP:  75; 6HR MAX TEMP:  82;

HIGHFILL       SUNNY     81  60  48 NE3       30.05F
6HR MIN TEMP:  76; 6HR MAX TEMP:  84;

SPRINGDALE     MOSUNNY   79  63  57 CALM      30.07F
$$

ARZ004-005-016-020100-
NORTH CENTRAL ARKANSAS

CITY           SKY/WX    TMP DP  RH WIND       PRES   REMARKS
BATESVILLE     CLOUDY    77  70  78 CALM      30.03F
6HR MIN TEMP:  77; 6HR MAX TEMP:  82;

FLIPPIN        SUNNY     79  64  61 SE3       30.05S
6HR MIN TEMP:  73; 6HR MAX TEMP:  81;

MTN HOME       SUNNY     77  67  71 SE5       30.04S
6HR MIN TEMP:  72; 6HR MAX TEMP:  80;

$$

ARZ040-041-020100-
WEST CENTRAL ARKANSAS

CITY           SKY/WX    TMP DP  RH WIND       PRES   REMARKS
MENA           CLOUDY    73  68  83 E3        30.06S
MOUNT IDA      CLOUDY    71  69  93 CALM      30.03S FOG
6HR MIN TEMP:  71; 6HR MAX TEMP:  78; 6HR PCP:  0.03;

$$

ARZ009-017-025-026-028-020100-
NORTHEAST ARKANSAS

CITY           SKY/WX    TMP DP  RH WIND       PRES   REMARKS
CORNING        LGT RAIN  81  68  65 SE3       30.03S
JONESBORO      SUNNY     79  69  71 NE3       30.01F
6HR MIN TEMP:  78; 6HR MAX TEMP:  85;

NEWPORT        MOSUNNY   81  68  64 CALM      30.03F
6HR MIN TEMP:  80; 6HR MAX TEMP:  83;

WALNUT RIDGE   SUNNY     81  48  32 NE3       30.02S
6HR MIN TEMP:  79; 6HR MAX TEMP:  82;

BLYTHEVILLE    MOSUNNY   83  65  54 NE3       30.02S HX  85
6HR MIN TEMP:  81; 6HR MAX TEMP:  85;

$$

ARZ022-023-033-042-044-020100-
CENTRAL ARKANSAS

CITY           SKY/WX    TMP DP  RH WIND       PRES   REMARKS
LITTLE ROCK    CLOUDY    74  68  81 SE3       30.03S
6HR MIN TEMP:  74; 6HR MAX TEMP:  82;

N LITTLE ROCK  CLOUDY    75  71  86 S9        30.03S
6HR MIN TEMP:  75; 6HR MAX TEMP:  80;

JACKSONVILLE   PTSUNNY   78  69  74 NE1       30.02F
6HR MIN TEMP:  77; 6HR MAX TEMP:  80;

SEARCY         PTSUNNY   78  68  71 N5        30.03F
6HR MIN TEMP:  77; 6HR MAX TEMP:  80;

HOT SPRINGS    CLOUDY    72  67  84 SE3       30.04F
6HR MIN TEMP:  72; 6HR MAX TEMP:  77;

RUSSELLVILLE   CLOUDY    76  68  76 CALM      30.02F
6HR MIN TEMP:  74; 6HR MAX TEMP:  80;

CLINTON        PTSUNNY   77  72  83 CALM      30.04F
$$

ARZ036-020100-
EAST ARKANSAS

CITY           SKY/WX    TMP DP  RH WIND       PRES   REMARKS
WEST MEMPHIS   MOSUNNY   80  68  66 N5        29.99F
6HR MIN TEMP:  80; 6HR MAX TEMP:  85;

$$

ARZ050-053-066-070-073-020100-
SOUTHWEST ARKANSAS

CITY           SKY/WX    TMP DP  RH WIND       PRES   REMARKS
ARKADELPHIA    MOCLDY    72  70  93 CALM      30.04S
6HR MIN TEMP:  71; 6HR MAX TEMP:  73; 6HR PCP:  0.01;

CAMDEN         LGT RAIN  68  66  94 NE6       30.02F
TEXARKANA      CLOUDY    70  68  94 NE7       30.02R
6HR MIN TEMP:  69; 6HR MAX TEMP:  73; 6HR PCP: TRACE;

EL DORADO      CLOUDY    68  68 100 NE9       30.00F FOG
6HR MIN TEMP:  68; 6HR MAX TEMP:  69; 6HR PCP:  0.06;

DE QUEEN       CLOUDY    75  69  81 E3        30.01S
6HR MIN TEMP:  73; 6HR MAX TEMP:  77;

$$

ARZ056-057-069-020100-
SOUTHEAST ARKANSAS

CITY           SKY/WX    TMP DP  RH WIND       PRES   REMARKS
PINE BLUFF     CLOUDY    72  69  90 SW5       30.02F
6HR MIN TEMP:  71; 6HR MAX TEMP:  75; 6HR PCP:  0.06;

STUTTGART      CLOUDY    75  70  83 NW3       30.02F
6HR MIN TEMP:  73; 6HR MAX TEMP:  81; 6HR PCP:  0.01;

MONTICELLO     CLOUDY    72  70  93 CALM      30.00F FOG
6HR MIN TEMP:  72; 6HR MAX TEMP:  74; 6HR PCP:  0.09;


$$





USA.gov is the U.S. government's official web portal to all federal, state and local government web resources and services.